Location: Fisheating Creek Campgrounds
(26.9333°N, 81.3167°W)
Time: 04:59:03
(UTC-05:00)

Daily predictions for brighter satellites

Satellite Brightness Start Highest point End
(mag) Time Altitude Azimuth Time Altitude Azimuth Time Altitude Azimuth
CZ-3C R/B 4.2 03:08:20 48° SE 03:08:20 48° SE 03:49:23 10° E
Atlas Centaur 2 4.0 04:44:28 21° SSW 04:49:45 42° SSE 04:57:14 10° E
USA 32 4.2 04:50:15 69° SE 04:50:15 69° SE 04:54:59 10° S
Cosmos 1943 4.1 04:57:04 35° N 04:57:04 35° N 05:00:17 10° NNE
USA 116 4.1 05:00:44 10° SSE 05:04:58 76° ENE 05:05:10 74° NE
Centaur AC-116 3.5 05:08:06 55° SSW 05:08:06 55° SSW 05:10:52 10° ESE
Cosmos 1238 Rocket 4.0 05:11:32 52° W 05:11:32 52° W 05:17:35 10° SSW
CZ-3 R/B 2.5 04:58:02 21° WSW 05:11:39 77° SSE 05:17:02 10° E
USA 229 DEB 3.6 05:08:24 16° SW 05:13:56 69° WNW 05:20:50 10° NNE
USA 229 3.5 05:08:13 15° SW 05:14:02 69° WNW 05:20:56 10° NNE
Okean 1 Rocket 4.5 05:09:43 10° S 05:11:43 26° SSW 05:11:43 26° SSW
Cosmos 2154 Rocket 3.8 05:09:55 10° S 05:16:08 85° W 05:22:20 10° N
H-2A DEB 4.2 05:18:34 45° ENE 05:18:34 45° ENE 05:20:41 10° E
Cosmos 1461 3.6 05:18:37 10° S 05:22:56 55° ESE 05:27:06 10° NE
COSMO-SKYMED 1 4.2 05:19:05 10° SE 05:22:59 34° ENE 05:26:53 10° N
Cosmos 1536 2.6 05:21:34 10° S 05:25:32 84° W 05:28:31 17° N
ASTRO E2 3.2 05:35:21 41° NNW 05:35:49 43° N 05:39:41 10° ENE
NOAA 6 3.9 05:30:46 10° N 05:35:50 62° WNW 05:40:54 10° SSW
H-2A DEB 3.6 05:36:18 69° W 05:36:36 88° S 05:39:20 10° ESE
Sakura Rocket 4.4 05:33:12 33° WNW 05:36:41 79° N 05:45:51 10° E
Skynet4D Del rocket 3.4 05:36:58 34° W 05:39:26 89° N 05:44:48 10° E
SL-8 Rocket 4.5 05:33:17 10° S 05:39:27 63° E 05:45:36 10° NNE
Cosmos 1269 Rocket 3.9 05:37:03 10° SSW 05:42:20 82° WNW 05:47:39 10° NNE
USA 215 3.4 05:43:37 10° NNE 05:49:51 50° NW 05:56:06 10° WSW
CZ-4 R/B 3.9 05:47:03 10° NE 05:50:13 23° E 05:53:20 10° SSE
CZ-3 Stage 3 3.6 05:48:24 10° SSW 05:51:19 31° SE 05:59:37 10° ENE
Cosmos 2263 4.5 05:47:14 10° NNW 05:52:48 67° ENE 05:58:21 10° SSE
Cosmos 1340 4.2 05:50:02 10° NNE 05:53:34 37° E 05:57:05 10° SSE
OAO 3 Copernicus 4.5 05:51:25 25° NW 05:54:18 67° NNE 05:59:21 10° ESE
Okean 1-7 Rocket 3.7 05:52:12 12° NNW 05:56:02 51° W 06:00:17 10° SSW
CSL-04 Rocket 3.8 05:51:05 10° NNE 05:56:36 81° ESE 06:02:01 10° S
Cosmos 1295 Rocket 4.4 05:51:00 10° SSW 05:57:15 68° W 06:03:28 10° N
Thor Agena Rocket 4.5 05:53:48 10° SSW 05:57:56 25° W 05:59:42 21° WNW
Cosmos 2056 Rocket 4.4 05:57:18 22° WNW 05:59:03 27° W 06:03:18 10° SSW
Cosmos 1455 Rocket 3.3 05:58:15 10° S 06:02:31 70° E 06:06:50 10° N
Cosmos 1048 Rocket 4.0 05:57:34 10° SSW 06:02:34 55° WNW 06:07:37 10° N
Ariane Rocket 3.0 06:00:51 10° N 06:05:50 61° WNW 06:10:49 10° SSW
Cosmos 2218 Rocket 4.1 05:59:49 10° S 06:06:13 89° E 06:12:38 10° N
CSL-04 Debris 4.2 06:01:53 10° NNE 06:07:23 87° ESE 06:12:52 10° SSW
DMSP B5D1-3 4.5 06:05:29 10° S 06:10:37 82° WSW 06:15:48 10° NNW
SKYMED 2 3.7 06:06:41 10° S 06:10:55 55° W 06:15:11 10° NNW
Cosmos 1975 3.5 06:09:31 10° S 06:13:32 58° E 06:17:34 10° NNE
Nadezhda 3 Rocket 4.5 06:09:24 10° NNW 06:15:15 39° W 06:21:04 10° SSW
GPS 2-12 Rocket1 4.4 06:14:41 10° WSW 06:19:04 36° S 06:23:29 10° ESE
COSMOS 2406 3.1 06:14:05 10° SSW 06:19:43 72° WNW 06:25:23 10° NNE
Cosmos 2369 Rocket 2.6 06:14:27 10° NW 06:19:49 44° WSW 06:25:08 10° S
Centaur AC-112 1.5 06:19:40 10° W 06:23:25 73° S 06:25:26 10° E
Lacrosse 4 Rocket 2.5 06:22:09 10° N 06:26:02 42° ENE 06:29:52 10° SE
Cosmos 1025 Rocket 3.7 06:23:06 10° NNW 06:27:00 33° W 06:30:53 10° SSW
SPOT 3 Rocket 4.4 06:22:56 10° NNE 06:27:59 55° ESE 06:33:01 10° S
GRACE-2 4.2 06:25:27 10° NNW 06:28:06 43° W 06:30:46 10° SSW
GRACE-1 4.2 06:25:53 10° NNW 06:28:32 41° W 06:31:11 10° SSW
Meteor 2-4 Rocket 4.2 06:24:15 10° NNW 06:29:28 39° W 06:34:47 10° SSW
Meteor 1-23 Rocket 4.5 06:24:13 10° NNW 06:29:29 46° W 06:34:47 10° SSW
NOSS 3-1 (C) 3.6 06:26:20 10° SW 06:31:44 44° WNW 06:37:35 10° NNE
SL-27 R/B 2.9 06:31:55 10° SW 06:35:15 40° WNW 06:38:39 10° N
Cosmos 1727 Rocket 4.3 06:30:28 10° N 06:36:39 76° E 06:42:53 10° S
Cosmos 494 Rocket 4.2 06:32:24 10° S 06:37:30 78° ESE 06:42:38 10° NNE
Atlas Centaur 2 3.1 06:31:00 10° WSW 06:39:32 86° SSE 06:46:55 10° ENE
